Port Huron, MI

10:58 AM EDT on July 22, 2017 (GMT -0400)
Saint Clair County International

Weather History for KPHN - December, 2013

Change the Weather History Date:

Thursday, December 19, 2013

  Actual Average (KMTC) Record (KMTC)
Temperature  
Mean Temperature 29 °F -  
Max Temperature 37 °F 33 °F 56 °F (1957)
Min Temperature 21 °F 23 °F -4 °F (1951)
Degree Days  
Heating Degree Days 36    
Moisture  
Dew Point 25 °F    
Average Humidity 75    
Maximum Humidity 93    
Minimum Humidity 59    
Precipitation  
Precipitation 0.00 in - - ()
Sea Level Pressure  
Sea Level Pressure 29.93 in    
Wind  
Wind Speed 5 mph (SSW)    
Max Wind Speed 7 mph    
Max Gust Speed -    
Visibility 9 miles    
Events Snow    
Averages and records for this station are not official NWS values.
T = Trace of Precipitation, MM = Missing Value Source: NWS Daily Summary

Daily Weather History Graph

Daily Weather History Graph

Search for Another Location

Airport or City:

Trip Planner

Search our weather history database for the weather conditions in past years. The results will help you decide how hot, cold, wet, or windy it might be!

Date:

Astronomy

Dec. 19, 2013 Rise Set
Actual Time 7:56 AM EST 4:57 PM EST
Civil Twilight 7:24 AM EST 5:30 PM EST
Nautical Twilight 6:48 AM EST 6:06 PM EST
Astronomical Twilight 6:14 AM EST 6:40 PM EST
Moon 7:25 PM EST (12/19) 9:12 AM EST (12/19)
Length of Visible Light 10h 05m
Length of Day
9h 01m
Waning Gibbous, 95% of the Moon is Illuminated
Dec 19
Waning Gibbous
Dec 25
Last Quarter
Jan 1
New
Jan 7
First Quarter
Jan 15
Full

Hourly Weather History & Observations

Time (EST) Temp. Windchill Dew Point Humidity Pressure Visibility Wind Dir Wind Speed Gust Speed Precip Events Conditions
12:17 AM 21.2 °F 13.6 °F 15.8 °F 80% 29.89 in 10.0 mi South 5.8 mph - N/A   Clear
12:37 AM 23.0 °F 17.0 °F 17.6 °F 80% 29.87 in 10.0 mi South 4.6 mph - N/A   Clear
12:57 AM 23.0 °F 17.0 °F 17.6 °F 80% 29.86 in 10.0 mi South 4.6 mph - N/A   Clear
1:17 AM 23.0 °F 17.0 °F 17.6 °F 80% 29.86 in 10.0 mi SSW 4.6 mph - N/A   Clear
1:37 AM 24.8 °F 19.1 °F 17.6 °F 74% 29.85 in 10.0 mi South 4.6 mph - N/A   Clear
1:57 AM 24.8 °F 16.9 °F 17.6 °F 74% 29.85 in 10.0 mi SSW 6.9 mph - N/A   Clear
2:17 AM 24.8 °F 19.1 °F 17.6 °F 74% 29.85 in 10.0 mi SSW 4.6 mph - N/A   Clear
2:37 AM 24.8 °F 19.1 °F 17.6 °F 74% 29.85 in 10.0 mi SSW 4.6 mph - N/A   Clear
2:57 AM 26.6 °F 19.1 °F 17.6 °F 69% 29.86 in 10.0 mi SSW 6.9 mph - N/A   Clear
3:17 AM 28.4 °F 22.2 °F 15.8 °F 59% 29.86 in 10.0 mi SSW 5.8 mph - N/A   Clear
3:37 AM 28.4 °F 21.2 °F 15.8 °F 59% 29.86 in 10.0 mi SSW 6.9 mph - N/A   Clear
3:57 AM 28.4 °F 22.2 °F 17.6 °F 64% 29.86 in 10.0 mi SSW 5.8 mph - N/A   Clear
4:17 AM 28.4 °F 21.2 °F 17.6 °F 64% 29.85 in 10.0 mi SSW 6.9 mph - N/A   Clear
4:37 AM 28.4 °F 23.3 °F 17.6 °F 64% 29.85 in 10.0 mi SSW 4.6 mph - N/A   Clear
4:57 AM 28.4 °F 22.2 °F 17.6 °F 64% 29.85 in 10.0 mi SW 5.8 mph - N/A   Clear
5:17 AM 28.4 °F 22.2 °F 17.6 °F 64% 29.86 in 10.0 mi SSW 5.8 mph - N/A   Clear
5:37 AM 28.4 °F 22.2 °F 17.6 °F 64% 29.86 in 10.0 mi SW 5.8 mph - N/A   Clear
5:57 AM 28.4 °F 23.3 °F 17.6 °F 64% 29.86 in 10.0 mi SSW 4.6 mph - N/A   Clear
6:17 AM 28.4 °F 23.3 °F 19.4 °F 69% 29.87 in 10.0 mi SW 4.6 mph - N/A   Clear
6:37 AM 28.4 °F 22.2 °F 19.4 °F 69% 29.88 in 10.0 mi SW 5.8 mph - N/A   Clear
6:57 AM 30.2 °F 25.4 °F 19.4 °F 64% 29.87 in 10.0 mi SW 4.6 mph - N/A   Clear
7:17 AM 30.2 °F 23.4 °F 19.4 °F 64% 29.89 in 10.0 mi SW 6.9 mph - N/A   Clear
7:37 AM 30.2 °F 26.7 °F 19.4 °F 64% 29.89 in 10.0 mi SW 3.5 mph - N/A   Clear
7:57 AM 30.2 °F 26.7 °F 21.2 °F 69% 29.89 in 10.0 mi SW 3.5 mph - N/A   Clear
8:17 AM 30.2 °F 25.4 °F 21.2 °F 69% 29.89 in 10.0 mi SW 4.6 mph - N/A   Clear
8:37 AM 30.2 °F 24.3 °F 21.2 °F 69% 29.90 in 10.0 mi SW 5.8 mph - N/A   Clear
8:57 AM 32.0 °F 26.4 °F 21.2 °F 64% 29.91 in 10.0 mi SW 5.8 mph - N/A   Clear
9:17 AM 32.0 °F 27.5 °F 23.0 °F 69% 29.92 in 10.0 mi SW 4.6 mph - N/A   Clear
9:37 AM 32.0 °F 27.5 °F 23.0 °F 69% 29.93 in 10.0 mi SW 4.6 mph - N/A   Clear
9:57 AM 33.8 °F 28.6 °F 23.0 °F 65% 29.93 in 10.0 mi SW 5.8 mph - N/A   Clear
10:17 AM 33.8 °F 30.8 °F 24.8 °F 70% 29.94 in 10.0 mi SW 3.5 mph - N/A   Clear
10:37 AM 35.6 °F 31.7 °F 24.8 °F 65% 29.94 in 10.0 mi SW 4.6 mph - N/A   Clear
10:57 AM 35.6 °F 31.7 °F 26.6 °F 70% 29.95 in 10.0 mi SW 4.6 mph - N/A   Clear
11:17 AM 37.4 °F 32.8 °F 26.6 °F 65% 29.96 in 10.0 mi WSW 5.8 mph - N/A   Clear
11:37 AM 37.4 °F 33.8 °F 26.6 °F 65% 29.96 in 10.0 mi WSW 4.6 mph - N/A   Clear
11:57 AM 37.4 °F 32.8 °F 26.6 °F 65% 29.96 in 10.0 mi SW 5.8 mph - N/A   Clear
12:17 PM 37.4 °F 34.9 °F 26.6 °F 65% 29.95 in 10.0 mi WSW 3.5 mph - N/A   Clear
12:37 PM 37.4 °F 33.8 °F 28.4 °F 70% 29.95 in 10.0 mi WSW 4.6 mph - N/A   Clear
12:57 PM 37.4 °F - 28.4 °F 70% 29.95 in 10.0 mi Calm Calm - N/A   Clear
1:17 PM 37.4 °F 33.8 °F 28.4 °F 70% 29.96 in 10.0 mi WNW 4.6 mph - N/A   Clear
1:37 PM 37.4 °F 34.9 °F 28.4 °F 70% 29.96 in 10.0 mi NW 3.5 mph - N/A   Clear
1:57 PM 37.4 °F - 28.4 °F 70% 29.96 in 10.0 mi Calm Calm - N/A   Clear
2:17 PM 37.4 °F 34.9 °F 28.4 °F 70% 29.96 in 10.0 mi North 3.5 mph - N/A   Clear
2:37 PM 37.4 °F - 28.4 °F 70% 29.96 in 10.0 mi Calm Calm - N/A   Clear
2:57 PM 37.4 °F - 28.4 °F 70% 29.97 in 10.0 mi Calm Calm - N/A   Clear
3:17 PM 37.4 °F - 28.4 °F 70% 29.97 in 10.0 mi Calm Calm - N/A   Scattered Clouds
3:37 PM 35.6 °F - 28.4 °F 75% 29.97 in 10.0 mi Calm Calm - N/A   Mostly Cloudy
3:57 PM 35.6 °F - 28.4 °F 75% 29.99 in 10.0 mi Calm Calm - N/A   Overcast
4:17 PM 35.6 °F - 28.4 °F 75% 29.99 in 10.0 mi Calm Calm - N/A   Overcast
4:37 PM 35.6 °F 29.9 °F 30.2 °F 81% 29.99 in 10.0 mi ENE 6.9 mph - N/A   Overcast
4:57 PM 35.6 °F 31.7 °F 30.2 °F 81% 29.99 in 10.0 mi NE 4.6 mph - N/A   Overcast
5:17 PM 35.6 °F 31.7 °F 30.2 °F 81% 29.99 in 10.0 mi NNE 4.6 mph - N/A   Overcast
5:37 PM 33.8 °F 29.6 °F 30.2 °F 87% 29.99 in 10.0 mi NNE 4.6 mph - N/A   Overcast
5:57 PM 33.8 °F 28.6 °F 30.2 °F 87% 29.99 in 10.0 mi NE 5.8 mph - N/A   Overcast
6:17 PM 33.8 °F 28.6 °F 30.2 °F 87% 30.00 in 10.0 mi NE 5.8 mph - N/A   Overcast
6:37 PM 33.8 °F 28.6 °F 30.2 °F 87% 30.00 in 7.0 mi NE 5.8 mph - N/A   Overcast
6:57 PM 32.0 °F 25.6 °F 28.4 °F 87% 29.98 in 7.0 mi NE 6.9 mph - N/A   Overcast
7:17 PM 32.0 °F 28.7 °F 28.4 °F 87% 29.99 in 7.0 mi NE 3.5 mph - N/A   Overcast
7:37 PM 32.0 °F 28.7 °F 30.2 °F 93% 30.00 in 7.0 mi NE 3.5 mph - N/A   Overcast
7:57 PM 33.8 °F 29.6 °F 30.2 °F 87% 29.99 in 7.0 mi NE 4.6 mph - N/A   Overcast
8:17 PM 33.8 °F 29.6 °F 30.2 °F 87% 29.99 in 7.0 mi NE 4.6 mph - N/A   Overcast
8:37 PM 33.8 °F 28.6 °F 30.2 °F 87% 29.98 in 7.0 mi East 5.8 mph - N/A Snow Light Snow
8:57 PM 33.8 °F 28.6 °F 30.2 °F 87% 29.97 in 5.0 mi East 5.8 mph - N/A   Overcast
9:17 PM 33.8 °F 30.8 °F 30.2 °F 87% 29.97 in 5.0 mi ENE 3.5 mph - N/A   Overcast
9:37 PM 32.0 °F 28.7 °F 30.2 °F 93% 29.97 in 5.0 mi NE 3.5 mph - N/A   Overcast
9:57 PM 32.0 °F 28.7 °F 30.2 °F 93% 29.97 in 5.0 mi NE 3.5 mph - N/A   Overcast
10:17 PM 32.0 °F 27.5 °F 30.2 °F 93% 29.96 in 5.0 mi NE 4.6 mph - N/A   Overcast
10:37 PM 32.0 °F 26.4 °F 30.2 °F 93% 29.95 in 5.0 mi NE 5.8 mph - N/A   Overcast
10:57 PM 32.0 °F 25.6 °F 30.2 °F 93% 29.94 in 5.0 mi NE 6.9 mph - N/A   Overcast
11:17 PM 32.0 °F 25.6 °F 30.2 °F 93% 29.94 in 4.0 mi NE 6.9 mph - N/A   Overcast
11:37 PM 32.0 °F 25.6 °F 30.2 °F 93% 29.94 in 2.5 mi NE 6.9 mph - N/A   Overcast
11:57 PM 32.0 °F 26.4 °F 30.2 °F 93% 29.94 in 2.0 mi NE 5.8 mph - N/A   Overcast